Location: Killam
(52.7910°N, 111.8608°W)
Time: 20:53:12
(UTC+00:00)

Vanguard 2 Rocket - Pass Details

Date: 16 February 2026
Orbit: 553 x 3286 km, 32.9° (Epoch: 8 March)

Event Time Altitude Azimuth Distance (km) Brightness Sun altitude
Rises 17:33:25 0° 183° (S) 7,251 12.4 19.5°
Reaches altitude 10° 17:44:10 10° 157° (SSE) 6,031 13.2 20.4°
Maximum altitude 17:48:48 11° 142° (SE) 5,708 13.1 20.7°
Drops below altitude 10° 17:53:07 10° 127° (SE) 5,583 12.3 21.0°
Sets 18:01:31 0° 100° (E) 5,948 11.6 21.6°
